Home   Weather   Surgut   Past weeks

Flag for Russia Past Weather in Surgut, Russia — Yesterday and Last 2 Weeks

Now
54 °F

Passing clouds.


Feels Like: 51 °F
Forecast: 48 / 55 °F
Wind: 8 mph from South

Location: Surgut Airport

Current Time: Sep 26, 2016 at 12:16:46 AM

Latest Report: Sep 25, 2016 at 11:30 PM


Visibility: 4 mi

Pressure: 30.27 "Hg

Humidity: 88%

Dew Point: 50 °F

Location of SurgutLocation

Past Weather in Surgut — Graph

°F

Surgut Temperature Yesterday

Maximum temperature yesterday: 54 °F (at 2:30 PM)
Minimum temperature yesterday: 45 °F (at 3:00 AM)
Average temperature yesterday: 50 °F

High & Low Weather Summary for the Past Weeks

 TemperatureHumidityPressure
High68 °F (Sep 17, 3:00 PM)100% (Sep 10, 11:00 PM)30.48 "Hg (Sep 10, 11:00 PM)
Low34 °F (Sep 24, 5:00 AM)49% (Sep 17, 1:30 PM)29.33 "Hg (Sep 12, 11:00 AM)
Average53 °F91%29.99 "Hg
* Reported Sep 10 11:00 PM — Sep 25 11:00 PM, Surgut, Weather by CustomWeather, © 2016

Note: Actual official high and low records may vary slightly from our data, if they occured in-between our weather recording intervals... More about our weather records

Advertising

Surgut Weather History for the Previous 24 Hours

Scroll right to see more
 ConditionsComfort  
Time TempWeatherWind HumidityBarometerVisibility
11:00 PM
Sun, Sep 25
54 °FPassing clouds.8 mph88%30.30 "Hg4 mi
10:30 PM54 °FPassing clouds.3 mph88%30.30 "Hg4 mi
10:00 PM54 °FPassing clouds.3 mph88%30.30 "Hg4 mi
9:30 PM54 °FPassing clouds.3 mph88%30.30 "Hg4 mi
9:00 PM54 °FPassing clouds.3 mph88%30.30 "Hg4 mi
8:30 PM54 °FPassing clouds.3 mph88%30.30 "Hg4 mi
8:00 PM54 °FPassing clouds.3 mph88%30.33 "Hg4 mi
7:30 PM54 °FPassing clouds.3 mph88%30.33 "Hg4 mi
7:00 PM54 °FPassing clouds.3 mph88%30.33 "Hg4 mi
6:30 PM54 °FPassing clouds.3 mph94%30.33 "Hg4 mi
6:00 PM54 °FPassing clouds.3 mph94%30.33 "Hg4 mi
5:30 PM54 °FPartly sunny.3 mph100%30.33 "Hg4 mi
5:00 PM54 °FPartly sunny.3 mph100%30.33 "Hg4 mi
4:30 PM54 °FPartly sunny.3 mph94%30.33 "Hg4 mi
4:00 PM54 °FPartly sunny.3 mph94%30.33 "Hg4 mi
3:30 PM54 °FBroken clouds.6 mph100%30.33 "Hg4 mi
3:00 PM54 °FBroken clouds.3 mph100%30.36 "Hg4 mi
2:30 PM54 °FBroken clouds.3 mph100%30.36 "Hg4 mi
2:00 PM52 °FBroken clouds.6 mph100%30.36 "Hg4 mi
1:30 PM52 °FBroken clouds.6 mph100%30.36 "Hg4 mi
1:00 PM52 °FBroken clouds.3 mph100%30.36 "Hg4 mi
12:30 PM52 °FBroken clouds.6 mph100%30.36 "Hg4 mi
12:00 PM50 °FMostly cloudy.6 mph100%30.39 "Hg4 mi
11:30 AM48 °FMostly cloudy.3 mph100%30.39 "Hg4 mi
11:00 AM46 °FFog.3 mph100%30.39 "Hg3 mi
10:30 AM46 °FFog.6 mph100%30.39 "Hg3 mi
10:00 AM46 °FMostly cloudy.8 mph100%30.39 "Hg4 mi
9:00 AM45 °FFog.6 mph100%30.39 "Hg3 mi
8:30 AM45 °FFog.3 mph100%30.39 "Hg3 mi
8:00 AM45 °FFog.3 mph100%30.39 "Hg3 mi
5:30 AM45 °FLow clouds.6 mph100%30.39 "Hg4 mi
5:00 AM45 °FLight rain. Low clouds.8 mph100%30.39 "Hg4 mi
4:30 AM45 °FLight rain. Fog.8 mph100%30.39 "Hg3 mi
4:00 AM45 °FLight rain. Low clouds.6 mph100%30.39 "Hg4 mi
3:30 AM45 °FLight rain. Low clouds.8 mph100%30.39 "Hg4 mi
3:00 AM45 °FPassing clouds.8 mph100%30.39 "Hg4 mi
2:30 AM46 °FPassing clouds.6 mph100%30.39 "Hg4 mi
2:00 AM46 °FPassing clouds.6 mph100%30.39 "Hg4 mi
1:30 AM46 °FClear.8 mph100%30.39 "Hg4 mi
1:00 AM46 °FPassing clouds.8 mph100%30.39 "Hg4 mi
12:30 AM46 °FPassing clouds.8 mph100%30.39 "Hg4 mi
12:00 AM46 °FPassing clouds.8 mph100%30.39 "Hg4 mi
Weather by CustomWeather, © 2016

See weather overviewHow to use our weather pages